Weather History for Butte, MT

Change the Weather History Date:

Sunday, November 28, 2010

  Actual Average Record
Temperature  
Mean Temperature 20 °F 21 °F  
Max Temperature 25 °F 33 °F 51 °F (1932)
Min Temperature 15 °F 10 °F -24 °F (1896)
Degree Days  
Heating Degree Days 45 44  
Month to date heating degree days 1092 1029  
Since 1 July heating degree days 2405 2400  
Cooling Degree Days 0 0  
Month to date cooling degree days 0 0  
Year to date cooling degree days 27 81  
Moisture  
Dew Point 16 °F    
Average Humidity 83    
Maximum Humidity 92    
Minimum Humidity 73    
Precipitation  
Precipitation T in 0.02 in 0.25 in (1905)
Month to date precipitation 0.50 0.56  
Year to date precipitation 14.74 12.22  
Sea Level Pressure  
Sea Level Pressure 29.73 in    
Wind  
Wind Speed 7 mph (WNW)    
Max Wind Speed 13 mph    
Max Gust Speed 17 mph    
Visibility 7 miles    
Events Snow    
T = Trace of Precipitation, MM = Missing Value Source: NWS Daily Summary

Daily Weather History Graph

Daily Weather History Graph

Search for Another Location

Airport:

Trip Planner

Search our weather history database for the weather conditions in past years. The results will help you decide how hot, cold, wet, or windy it might be!

Date:

Astronomy

Nov. 28, 2010 Rise Set
Actual Time 7:47 AM MST 4:47 PM MST
Civil Twilight 7:14 AM MST 5:21 PM MST
Nautical Twilight 6:36 AM MST 5:58 PM MST
Astronomical Twilight 6:01 AM MST 6:34 PM MST
Moon No Moon Rise 12:43 PM MST (11/28)
Length of Visible Light 10h 07m
Length of Day
9h 00m
Waning Gibbous, 51% of the Moon is Illuminated
Nov 28
Waning Gibbous
Nov 28
Last Quarter
Dec 5
New
Dec 13
First Quarter
Dec 21
Full

Hourly Weather History & Observations

Time (MST) Temp. Windchill Dew Point Humidity Pressure Visibility Wind Dir Wind Speed Gust Speed Precip Events Conditions
12:53 AM 21.9 °F - 17.1 °F 82% 29.64 in 10.0 mi Calm Calm - N/A   Mostly Cloudy
1:53 AM 17.1 °F - 14.0 °F 88% 29.66 in 10.0 mi Calm Calm - N/A   Mostly Cloudy
2:41 AM 15.8 °F - 12.2 °F 86% 29.53 in 10.0 mi Calm Calm - N/A   Overcast
2:50 AM 17.6 °F 12.3 °F 14.0 °F 86% 29.54 in 10.0 mi SSE 3.5 mph - N/A   Overcast
2:53 AM 17.1 °F 10.0 °F 12.9 °F 84% 29.64 in 10.0 mi SE 4.6 mph - N/A   Overcast
3:22 AM 17.6 °F - 12.2 °F 79% 29.54 in 10.0 mi Calm Calm - N/A   Overcast
3:50 AM 17.6 °F 10.7 °F 12.2 °F 79% 29.53 in 10.0 mi South 4.6 mph - N/A   Overcast
3:53 AM 17.1 °F 7.6 °F 12.9 °F 84% 29.65 in 10.0 mi South 6.9 mph - N/A   Overcast
4:35 AM 19.4 °F - 15.8 °F 86% 29.55 in 10.0 mi Calm Calm - N/A   Overcast
4:48 AM 19.4 °F - 15.8 °F 86% 29.55 in 10.0 mi Calm Calm - N/A   Overcast
4:53 AM 19.9 °F - 15.1 °F 81% 29.65 in 10.0 mi Calm Calm - N/A   Overcast
5:00 AM 19.4 °F - 15.8 °F 86% 29.55 in 10.0 mi Calm Calm - N/A   Overcast
5:24 AM 19.4 °F - 15.8 °F 86% 29.56 in 10.0 mi Calm Calm - N/A   Overcast
5:49 AM 21.2 °F 14.9 °F 17.6 °F 86% 29.56 in 10.0 mi WNW 4.6 mph - N/A   Overcast
5:53 AM 21.0 °F 14.6 °F 17.1 °F 85% 29.68 in 10.0 mi WNW 4.6 mph - N/A   Overcast
6:39 AM 21.2 °F 16.4 °F 19.4 °F 93% 29.57 in 9.0 mi North 3.5 mph - N/A   Overcast
6:53 AM 21.9 °F 17.2 °F 19.0 °F 89% 29.68 in 10.0 mi NE 3.5 mph - N/A   Overcast
7:39 AM 19.4 °F 12.8 °F 17.6 °F 93% 29.59 in 10.0 mi South 4.6 mph - N/A   Overcast
7:53 AM 19.9 °F 13.4 °F 17.1 °F 89% 29.73 in 10.0 mi SE 4.6 mph - N/A   Overcast
8:24 AM 21.2 °F - 19.4 °F 93% 29.60 in 6.0 mi Calm Calm - 0.00 in Snow Light Snow
8:53 AM 23.0 °F 18.4 °F 18.0 °F 81% 29.73 in 10.0 mi North 3.5 mph - 0.00 in   Overcast
9:04 AM 23.0 °F - 17.6 °F 80% 29.61 in 7.0 mi Calm Calm - 0.00 in Snow Light Snow
9:12 AM 23.0 °F - 19.4 °F 86% 29.61 in 7.0 mi Calm Calm - 0.00 in Snow Light Snow
9:53 AM 24.1 °F 15.2 °F 19.0 °F 81% 29.73 in 8.0 mi WNW 8.1 mph - 0.00 in Snow Light Snow
10:07 AM 24.8 °F 16.9 °F 17.6 °F 74% 29.63 in 4.0 mi WNW 6.9 mph - 0.00 in Snow Light Snow
10:32 AM 24.8 °F 15.3 °F 17.6 °F 74% 29.63 in 2.5 mi WNW 9.2 mph - 0.00 in Snow Light Snow
10:43 AM 24.8 °F 16.1 °F 17.6 °F 74% 29.64 in 3.0 mi NW 8.1 mph - 0.00 in Snow Light Snow
10:53 AM 25.0 °F 16.3 °F 19.0 °F 78% 29.75 in 4.0 mi NW 8.1 mph - 0.00 in Snow Light Snow
11:33 AM 24.8 °F 15.3 °F 19.4 °F 80% 29.64 in 2.5 mi NW 9.2 mph - 0.00 in Snow Light Snow
11:49 AM 24.8 °F 15.3 °F 19.4 °F 80% 29.65 in 2.5 mi NW 9.2 mph - 0.00 in Snow Light Snow
11:53 AM 25.0 °F 15.5 °F 18.0 °F 75% 29.76 in 3.0 mi NW 9.2 mph - 0.00 in Snow Light Snow
12:07 PM 24.8 °F 15.3 °F 17.6 °F 74% 29.65 in 5.0 mi NW 9.2 mph - 0.00 in Snow Light Snow
12:34 PM 24.8 °F 14.6 °F 17.6 °F 74% 29.66 in 2.0 mi NW 10.4 mph - 0.00 in Snow Light Snow
12:53 PM 25.0 °F 14.8 °F 18.0 °F 75% 29.79 in 2.5 mi WNW 10.4 mph - 0.00 in Snow Light Snow
1:08 PM 24.8 °F 16.9 °F 17.6 °F 74% 29.67 in 2.5 mi NW 6.9 mph - 0.00 in Snow Light Snow
1:20 PM 24.8 °F 14.6 °F 17.6 °F 74% 29.67 in 5.0 mi NW 10.4 mph - 0.00 in Snow Light Snow
1:53 PM 25.0 °F 15.5 °F 17.1 °F 72% 29.84 in 4.0 mi WNW 9.2 mph - 0.00 in Snow Light Snow
1:57 PM 24.8 °F 14.0 °F 17.6 °F 74% 29.69 in 2.5 mi WNW 11.5 mph - 0.00 in Snow Light Snow
2:09 PM 24.8 °F 15.3 °F 17.6 °F 74% 29.69 in 2.0 mi WNW 9.2 mph - 0.00 in Snow Light Snow
2:31 PM 24.8 °F 14.6 °F 17.6 °F 74% 29.70 in 1.5 mi NW 10.4 mph - 0.00 in Snow Light Snow
2:53 PM 24.1 °F 16.0 °F 18.0 °F 77% 29.87 in 1.8 mi WNW 6.9 mph - 0.00 in Snow Light Snow
3:01 PM 24.8 °F 16.9 °F 17.6 °F 74% 29.72 in 2.0 mi NW 6.9 mph - 0.00 in Snow Light Snow
3:11 PM 24.8 °F 15.3 °F 19.4 °F 80% 29.72 in 1.5 mi NW 9.2 mph - 0.00 in Snow Light Snow
3:24 PM 24.8 °F 16.1 °F 17.6 °F 74% 29.73 in 3.0 mi WNW 8.1 mph - 0.00 in Snow Light Snow
3:43 PM 23.0 °F 13.1 °F 17.6 °F 80% 29.74 in 7.0 mi NW 9.2 mph - 0.00 in Snow Light Snow
3:53 PM 23.0 °F 12.4 °F 17.1 °F 78% 29.91 in 9.0 mi NW 10.4 mph - 0.00 in   Overcast
4:53 PM 21.9 °F 11.0 °F 16.0 °F 78% 29.93 in 10.0 mi NW 10.4 mph - N/A   Overcast
5:53 PM 21.0 °F 11.4 °F 15.1 °F 78% 29.97 in 10.0 mi WNW 8.1 mph - N/A   Overcast
6:26 PM 19.4 °F 8.6 °F 15.8 °F 86% 29.83 in 10.0 mi WNW 9.2 mph - N/A   Overcast
6:53 PM 19.9 °F 10.1 °F 15.1 °F 81% 29.99 in 10.0 mi WNW 8.1 mph - N/A   Overcast
7:03 PM 19.4 °F 8.6 °F 15.8 °F 86% 29.84 in 10.0 mi WNW 9.2 mph - N/A   Overcast
7:44 PM 19.4 °F 9.5 °F 15.8 °F 86% 29.86 in 10.0 mi NW 8.1 mph - N/A   Overcast
7:53 PM 19.9 °F 11.1 °F 15.1 °F 81% 30.03 in 10.0 mi NW 6.9 mph - N/A   Overcast
8:23 PM 19.4 °F 10.4 °F 14.0 °F 80% 29.87 in 10.0 mi WNW 6.9 mph - N/A   Overcast
8:53 PM 19.4 °F 9.5 °F 14.0 °F 80% 29.89 in 10.0 mi WNW 8.1 mph - N/A   Overcast
9:11 PM 19.4 °F 10.4 °F 14.0 °F 80% 29.90 in 10.0 mi WNW 6.9 mph - N/A   Overcast
9:53 PM 19.9 °F 10.1 °F 14.0 °F 78% 30.08 in 10.0 mi WNW 8.1 mph - N/A   Overcast
10:00 PM 19.4 °F 10.4 °F 12.2 °F 74% 29.93 in 10.0 mi WNW 6.9 mph - N/A   Overcast
10:53 PM 19.9 °F 12.1 °F 12.0 °F 71% 30.10 in 10.0 mi WNW 5.8 mph - N/A   Overcast
11:53 PM 19.9 °F 12.1 °F 12.0 °F 71% 30.13 in 10.0 mi WNW 5.8 mph - N/A   Overcast